Laconia, New Hampshire, United States (03246)
Lat: 43.53N, Lon: 71.47W
Wx Zone: NHZ009
Local Info
Past Weather Observations for Sunday, February 22, 2015

NOTE: This archive is for the closest National Weather Service station to Laconia. Information may differ from the station used for current weather conditions.

Click here for Long-term Archive

Time Weather Temperature Dewpoint Humidity Pressure Winds Precip Visibility
23:55
Clear
25°F / -4°C 19°F / -7°C 80% 30.04 in
(1017 mb)
SSW 6.9 mph
(SSW 11 kph)
- 10SM
23:35
Clear
25°F / -4°C 19°F / -7°C 80% 30.06 in
(1018 mb)
W 4.6 mph
(W 7 kph)
- 10SM
23:15
Clear
19°F / -7°C 16°F / -9°C 86% 30.06 in
(1018 mb)
W 5.8 mph
(W 9 kph)
- 7SM
22:55
Clear
19°F / -7°C 18°F / -8°C 93% 30.06 in
(1018 mb)
Calm - 6SM
22:35
Clear
19°F / -7°C 16°F / -9°C 86% 30.06 in
(1018 mb)
Calm - 5SM
22:15
Clear
19°F / -7°C 16°F / -9°C 86% 30.06 in
(1018 mb)
Calm - 7SM
21:55
Clear
19°F / -7°C 18°F / -8°C 93% 30.06 in
(1018 mb)
Calm - 5SM
21:35
Partly Cloudy
21°F / -6°C 18°F / -8°C 86% 30.09 in
(1019 mb)
Calm - 9SM
21:15
Overcast
21°F / -6°C 19°F / -7°C 93% 30.09 in
(1019 mb)
SSW 3.5 mph
(SSW 6 kph)
- 9SM
20:55
Mostly Cloudy
21°F / -6°C 19°F / -7°C 93% 30.09 in
(1019 mb)
Calm - 9SM
20:35
Mostly Cloudy
23°F / -5°C 19°F / -7°C 86% 30.09 in
(1019 mb)
Calm - 10SM
20:15
Overcast
23°F / -5°C 19°F / -7°C 86% 30.09 in
(1019 mb)
Calm - 10SM
19:55
Overcast
23°F / -5°C 18°F / -8°C 80% 30.09 in
(1019 mb)
Calm - 9SM
19:35
Partly Cloudy
23°F / -5°C 19°F / -7°C 86% 30.09 in
(1019 mb)
Calm - 10SM
19:15
Mostly Cloudy
25°F / -4°C 19°F / -7°C 80% 30.09 in
(1019 mb)
Calm - 10SM
18:55
Overcast
25°F / -4°C 19°F / -7°C 80% 30.09 in
(1019 mb)
Calm - 10SM
18:35
Overcast
27°F / -3°C 19°F / -7°C 74% 30.09 in
(1019 mb)
Calm - 10SM
18:15
Mostly Cloudy
25°F / -4°C 19°F / -7°C 80% 30.09 in
(1019 mb)
Calm - 10SM
17:55
Partly Cloudy
27°F / -3°C 21°F / -6°C 80% 30.09 in
(1019 mb)
Calm - 10SM
17:35
Clear
28°F / -2°C 21°F / -6°C 74% 30.09 in
(1019 mb)
Calm - 10SM
17:15
Clear
32°F / 0°C 21°F / -6°C 64% 30.06 in
(1018 mb)
Calm - 10SM
16:55
Clear
34°F / 1°C 21°F / -6°C 60% 30.06 in
(1018 mb)
Calm - 10SM
16:35
Clear
34°F / 1°C 21°F / -6°C 60% 30.06 in
(1018 mb)
SSW 5.8 mph
(SSW 9 kph)
- 10SM
16:15
Partly Cloudy
34°F / 1°C 19°F / -7°C 56% 30.06 in
(1018 mb)
SSW 5.8 mph
(SSW 9 kph)
- 10SM
15:55
Partly Cloudy
34°F / 1°C 19°F / -7°C 56% 30.06 in
(1018 mb)
SW 5.8 mph
(SW 9 kph)
- 10SM
15:35
Clear
34°F / 1°C 19°F / -7°C 56% 30.06 in
(1018 mb)
SSW 6.9 mph
(SSW 11 kph)
- 10SM
15:15
Clear
34°F / 1°C 19°F / -7°C 56% 30.06 in
(1018 mb)
SSW 9.2 mph
(SSW 15 kph)
- 10SM
14:55
Clear
34°F / 1°C 21°F / -6°C 60% 30.06 in
(1018 mb)
SW 5.8 mph
(SW 9 kph)
- 10SM
14:35
Clear
34°F / 1°C 21°F / -6°C 60% 30.06 in
(1018 mb)
WNW 5.8 mph
(WNW 9 kph)
- 10SM
14:15
Partly Cloudy
34°F / 1°C 21°F / -6°C 60% 30.09 in
(1019 mb)
WNW 5.8 mph
(WNW 9 kph)
- 10SM
13:55
Mostly Cloudy
34°F / 1°C 21°F / -6°C 60% 30.06 in
(1018 mb)
SSW 10.4 mph
(SSW 17 kph)
- 10SM
13:35
Overcast
32°F / 0°C 21°F / -6°C 64% 30.06 in
(1018 mb)
SSW 5.8 mph
(SSW 9 kph)
- 10SM
13:15
Overcast
30°F / -1°C 21°F / -6°C 69% 30.09 in
(1019 mb)
SW 6.9 mph
(SW 11 kph)
- 10SM
12:55
Overcast
30°F / -1°C 21°F / -6°C 69% 30.09 in
(1019 mb)
SW 5.8 mph
(SW 9 kph)
0.02 in
(0.51 mm)
10SM
12:35
Overcast
30°F / -1°C 21°F / -6°C 69% 30.09 in
(1019 mb)
SW 6.9 mph
(SW 11 kph)
0.02 in
(0.51 mm)
10SM
12:15
Overcast
28°F / -2°C 21°F / -6°C 74% 30.09 in
(1019 mb)
SW 6.9 mph
(SW 11 kph)
0.01 in
(0.25 mm)
M1/4SM
11:55
Clear
30°F / -1°C 19°F / -7°C 64% 30.12 in
(1020 mb)
SSE 6.9 mph
(SSE 11 kph)
- 10SM
11:35
Clear
28°F / -2°C 19°F / -7°C 69% 30.12 in
(1020 mb)
SW 8.1 mph
(SW 13 kph)
- 10SM
11:15
Partly Cloudy
28°F / -2°C 19°F / -7°C 69% 30.12 in
(1020 mb)
SW 6.9 mph
(SW 11 kph)
- 10SM
10:55
Overcast
27°F / -3°C 19°F / -7°C 74% 30.12 in
(1020 mb)
SW 8.1 mph
(SW 13 kph)
- 10SM
10:35
Overcast
27°F / -3°C 19°F / -7°C 74% 30.12 in
(1020 mb)
SW 6.9 mph
(SW 11 kph)
- 10SM
10:15
Overcast
27°F / -3°C 19°F / -7°C 74% 30.12 in
(1020 mb)
SW 6.9 mph
(SW 11 kph)
- 10SM
09:55
Mostly Cloudy
27°F / -3°C 19°F / -7°C 74% 30.12 in
(1020 mb)
SW 8.1 mph
(SW 13 kph)
- 10SM
09:35
Partly Cloudy
25°F / -4°C 19°F / -7°C 80% 30.12 in
(1020 mb)
SW 6.9 mph
(SW 11 kph)
- 9SM
09:15
Clear
21°F / -6°C 19°F / -7°C 93% 30.12 in
(1020 mb)
SSW 3.5 mph
(SSW 6 kph)
- 8SM
08:55
Clear
21°F / -6°C 18°F / -8°C 86% 30.09 in
(1019 mb)
Calm - 5SM
08:35
Clear
19°F / -7°C 16°F / -9°C 86% 30.09 in
(1019 mb)
Calm - 5SM
08:15
Clear
19°F / -7°C 16°F / -9°C 86% 30.12 in
(1020 mb)
SSW 5.8 mph
(SSW 9 kph)
- 5SM
07:55
Clear
18°F / -8°C 14°F / -10°C 86% 30.09 in
(1019 mb)
SSW 4.6 mph
(SSW 7 kph)
- 5SM
07:35
Clear
18°F / -8°C 16°F / -9°C 93% 30.09 in
(1019 mb)
Calm - 7SM
07:15
Clear
19°F / -7°C 16°F / -9°C 86% 30.06 in
(1018 mb)
Calm - 7SM
06:55
Clear
19°F / -7°C 16°F / -9°C 86% 30.06 in
(1018 mb)
SSW 4.6 mph
(SSW 7 kph)
- 7SM
06:35
Clear
18°F / -8°C 16°F / -9°C 93% 30.06 in
(1018 mb)
SW 5.8 mph
(SW 9 kph)
- 6SM
06:15
Clear
19°F / -7°C 16°F / -9°C 86% 30.06 in
(1018 mb)
SSW 3.5 mph
(SSW 6 kph)
- 8SM
05:55
Clear
19°F / -7°C 18°F / -8°C 93% 30.06 in
(1018 mb)
Calm - 9SM
05:35
Clear
21°F / -6°C 18°F / -8°C 86% 30.06 in
(1018 mb)
SW 4.6 mph
(SW 7 kph)
- 10SM
05:15
Clear
21°F / -6°C 18°F / -8°C 86% 30.06 in
(1018 mb)
SSW 3.5 mph
(SSW 6 kph)
- 10SM
04:55
Clear
21°F / -6°C 18°F / -8°C 86% 30.06 in
(1018 mb)
SSW 4.6 mph
(SSW 7 kph)
- 8SM
04:35
Partly Cloudy
21°F / -6°C 18°F / -8°C 86% 30.06 in
(1018 mb)
SSW 5.8 mph
(SSW 9 kph)
- 7SM
04:15
Mostly Cloudy
21°F / -6°C 18°F / -8°C 86% 30.06 in
(1018 mb)
SW 4.6 mph
(SW 7 kph)
- 8SM
03:55
Overcast
21°F / -6°C 19°F / -7°C 93% 30.06 in
(1018 mb)
SSW 4.6 mph
(SSW 7 kph)
- 10SM
03:35
Overcast
21°F / -6°C 18°F / -8°C 86% 30.06 in
(1018 mb)
Calm - 8SM
03:15
Overcast
21°F / -6°C 18°F / -8°C 86% 30.06 in
(1018 mb)
Calm - 9SM
02:55
Overcast
21°F / -6°C 18°F / -8°C 86% 30.06 in
(1018 mb)
Calm - 6SM
02:35
Overcast
21°F / -6°C 18°F / -8°C 86% 30.06 in
(1018 mb)
Calm - 3SM
02:15
Overcast
21°F / -6°C 18°F / -8°C 86% 30.06 in
(1018 mb)
Calm - 5SM
01:55
Overcast
21°F / -6°C 18°F / -8°C 86% 30.06 in
(1018 mb)
Calm - 4SM
01:35
Overcast
21°F / -6°C 18°F / -8°C 86% 30.06 in
(1018 mb)
Calm - 2SM
01:15
Overcast
21°F / -6°C 18°F / -8°C 86% 30.06 in
(1018 mb)
Calm - 1 3/4SM
00:55
Overcast
21°F / -6°C 18°F / -8°C 86% 30.09 in
(1019 mb)
Calm - 3SM
00:35
Overcast
21°F / -6°C 18°F / -8°C 86% 30.09 in
(1019 mb)
Calm - 3SM
00:15
Overcast
21°F / -6°C 18°F / -8°C 86% 30.09 in
(1019 mb)
Calm - 2SM
Time Weather Temperature Dewpoint Humidity Pressure Winds Precip Visibility


Weather for websites

WeatherForYou.com, LLC is not responsible for any damages or problems caused by this service. Current weather conditions are obtained from the closest station including government and personal stations which may have varying degrees of accuracy. Weather forecasts are derived from the NOAA NDFD. Like all things, this site belongs to Jesus Christ... He just trusts me to maintain it. If you have any questions or comments email webmaster@weatherforyou.com

Copyright © 2015, WeatherForYou.com LLC. All rights reserved.